Back to catalog

COSMOS 1275 DEB

AlivePO
NORAD 12781·DEBRIS·🇷🇺 Russia

Launched Jun 4, 1981 from Plesetsk Cosmodrome

Loading…

Next Passes (next 24 hours)

TLE

FreshSource: Space-Track

Epoch: Sep 13, 2026, 09:58 UTC

1 12781U 81053DX  26256.41586729  .00000672  00000-0  56313-3 0  9995
2 12781  83.1658 236.4718 0070375 119.9729 356.4353 13.85568800261151

Track COSMOS 1275 DEB in real time with AllMySat

Download on the App Store